USCMUSCC

Guest
Details From USCM - MAGNITOGORSK
To USCC - BALANDINO
Flight Number -
Tags generated
Created
Modified
Stats Distance 155 nm / 287 km
Max Altitude 17,300 ft / 5,273 m
Waypoints 4
Social Downloads 0
Likes 0
Share VATSIM

Download

Looking for another format? Having issues loading an existing format? Contact us
Advertisement - Login to hide

Notes

Basic altitude profile: - Ascent Rate: 2500ft/min - Ascent Speed: 250kts - Cruise Altitude: 35000ft - Cruise Speed: 420kts - Descent Rate: 1500ft/min - Descent Speed: 250kts Options: - Use NATs: yes - Use PACOTS: yes - Use low airways: yes - Use high airways: yes

Route

USCM MGR G552 METOL USCC

ID Type Via Altitude Latitude Longitude Leg Dist Tot Dist Heading (true) Name
O USCM APT - 0 ft / 0 m 53.39313˚ 58.75566˚ - 0 nm - MAGNITOGORSK
MGR VOR - 200 ft / 61 m 53.40417˚ 58.75750˚ 0 nm 0 nm 6° / 6° MAGNITOGORSK VOR-DME
METOL FIX G552 (AWY-LO) 17,300 ft / 5,273 m 54.17000˚ 59.14333˚ 47 nm 48 nm 16° / 17° -
O USCC APT - 0 ft / 0 m 55.30584˚ 61.50332˚ 106 nm 155 nm 49° / 51° BALANDINO

Altitude Profile

Advertisement - Login to hide

USCM

Details ICAO USCM (MQF)
Name MAGNITOGORSK
Region Russia
Timezone Asia/Yekaterinburg (UTC+5.0)
Stats Elevation 1,431 ft / 436 m (AMSL)
Location 53.393132° 58.755661°
Runways 1
Magnetic Variation 12.556° E

METAR

USCM 211400Z 29006MPS 9999 OVC040CB 20/08 Q1019 R36/090065 NOSIG RMK QFE725

Decode

TAF

Not found

Departure Runways

ID Width Length Bearing (true) Bearing (mag) Surface Threshold Offset Overrun Length
01 148 ft / 45 m 10,648 ft / 3,246 m 16.20° 3.64° Concrete 0 ft / 0 m 140 ft / 43 m
19 148 ft / 45 m 10,648 ft / 3,246 m 196.21° 183.65° Concrete 0 ft / 0 m 140 ft / 43 m

USCC

Details ICAO USCC (CEK)
Name BALANDINO
Region Russia
Timezone Asia/Yekaterinburg (UTC+5.0)
Stats Elevation 769 ft / 234 m (AMSL)
Location 55.305843° 61.503320°
Runways 1
Magnetic Variation 13.827° E

METAR

USCC 211400Z 35008MPS 9999 SCT030CB 14/05 Q1018 R27/000060 NOSIG RMK QFE744

Decode

TAF

TAF USCC 211100Z 2112/2212 32006MPS 9999 BKN020CB TEMPO 2112/2118 31009MPS 3100 -SHRA BKN011CB

Decode

Destination Runways

ID Width Length Bearing (true) Bearing (mag) Surface Threshold Offset Overrun Length
09 197 ft / 60 m 10,443 ft / 3,183 m 103.59° 89.76° Concrete 0 ft / 0 m 230 ft / 70 m
27 197 ft / 60 m 10,443 ft / 3,183 m 283.63° 269.80° Concrete 0 ft / 0 m 230 ft / 70 m

Approach Navaids

Runway Type Ident Frequency Range Bearing (true) Bearing (mag) Slope Elevation
09 Localiser ILB 109.90 MHz 18 nm / 33 km 105.25° 91.42° - 769 ft / 234 m (AMSL)
09 Glidescope ILB 109.90 MHz 10 nm / 19 km 103.61° 89.79° 2.80° 769 ft / 234 m (AMSL)
27 Localiser IKS 108.70 MHz 18 nm / 33 km 282.19° 268.36° - 769 ft / 234 m (AMSL)
27 Glidescope IKS 108.70 MHz 10 nm / 19 km 283.61° 269.79° 2.80° 769 ft / 234 m (AMSL)

Popular Alternatives